Location: Cussy
(47.0410°N, 4.6412°E)
Time: 18:22:38
(UTC+00:00)

Daily predictions for brighter satellites

Satellite Brightness Start Highest point End
(mag) Time Altitude Azimuth Time Altitude Azimuth Time Altitude Azimuth
CZ-4B R/B 3.5 16:18:19 10° SE 16:23:17 42° ENE 16:28:15 10° N
Meteor 1-4 Rocket 4.4 16:25:52 10° ESE 16:27:31 13° E 16:29:09 10° ENE
SMAP 3.4 16:24:56 10° SE 16:29:18 42° ENE 16:33:41 10° N
Cosmos 2369 Rocket 3.1 16:24:57 10° N 16:29:46 27° NE 16:34:32 10° ESE
Cosmos 1782 4.4 16:30:37 10° ESE 16:33:01 16° E 16:35:26 10° NE
USA 281 4.3 16:29:35 10° E 16:34:23 22° NE 16:39:12 10° N
Cosmos 1933 4.1 16:31:25 10° SSE 16:35:04 33° E 16:38:44 10° NNE
Cosmos 1943 Rocket 2.5 16:30:13 10° NNW 16:35:28 42° NE 16:40:45 10° SE
Cosmos 2154 Rocket 4.3 16:30:18 10° NNW 16:36:39 78° W 16:42:59 10° S
Cosmos 1356 3.3 16:34:22 10° N 16:37:48 72° ENE 16:41:13 10° SSE
USA 267 3.9 16:32:03 10° ENE 16:37:59 39° N 16:43:56 10° WNW
Cosmos 389 Rocket 2.3 16:35:10 10° S 16:38:33 68° E 16:41:57 10° NNE
Cosmos 1980 4.3 16:34:18 10° SW 16:39:53 58° WNW 16:45:31 10° NNE
BREEZE-M DEB (TANK) 1.5 16:41:01 10° WSW 16:43:16 76° NNW 16:45:14 13° ENE
H-2A R/B 3.4 16:40:24 10° S 16:44:12 60° W 16:48:04 10° NNW
NOAA 12 4.2 16:39:17 10° SSE 16:44:29 59° ENE 16:49:43 10° N
Meteor 1-25 Rocket 4.4 16:41:00 10° N 16:46:32 53° ENE 16:52:05 10° SSE
X-37B 2.4 16:47:56 10° SSW 16:50:30 23° SSE 16:52:59 11° ESE
Landsat 5 3.6 16:46:41 10° NNE 16:51:10 86° ESE 16:55:41 10° SSW
YAOGAN 1 4.3 16:51:53 13° ENE 16:52:43 13° ENE 16:54:45 10° NNE
Lacrosse 5 rocket 0.9 16:49:06 10° SW 16:52:47 88° SE 16:55:50 14° NE
Sich 1 3.2 16:49:07 10° NNW 16:53:31 77° W 16:57:50 10° S
Cosmos 2341 Rocket 4.0 16:48:28 10° N 16:54:48 81° E 17:01:09 10° S
Cosmos 1470 Rocket 4.1 16:51:34 10° N 16:55:31 34° ENE 16:59:28 10° SE
SL-8 Rocket 4.0 16:50:44 10° N 16:56:58 66° ENE 17:03:13 10° SSE
Cosmos 1151 Rocket 3.2 16:55:41 10° SSE 16:59:48 50° E 17:03:56 10° NNE
ERS-2 3.2 16:57:22 13° NE 16:59:57 25° E 17:03:00 10° SSE
Cosmos 1515 Rocket 4.4 16:59:43 10° SSE 17:03:30 29° E 17:07:19 10° NNE
FengYun 1-2 T 4.2 16:59:13 10° SSE 17:04:40 63° ENE 17:10:06 10° N
Cosmos 2285 Rocket 4.0 16:59:23 10° NNW 17:05:50 83° ENE 17:12:11 10° SSE
CENTAUR R/B 4.2 17:05:20 10° ESE 17:06:27 11° E 17:06:27 11° E
ADEOS Rocket 4.0 16:58:53 10° N 17:06:33 68° WNW 17:14:10 10° SSW
Cosmos 2297 4.0 17:01:49 10° NNW 17:07:31 74° WSW 17:13:12 10° SSE
COSMO-SKYMED 1 3.6 17:04:49 13° NE 17:07:55 26° E 17:11:34 10° SSE
CSL-04 DEB 4.4 17:04:07 10° NNE 17:08:16 68° ESE 17:12:28 10° S
BREEZE-M DEB (TANK) 1.9 17:05:48 10° WSW 17:08:21 53° SSE 17:09:12 27° E
Cosmos 1606 3.5 17:05:19 10° SSW 17:09:09 55° WNW 17:12:58 10° N
Cosmos 1867 4.0 17:04:51 10° SW 17:10:14 60° NW 17:15:35 10° NNE
Cosmos 2228 Rocket 4.5 17:07:49 10° SE 17:10:56 19° E 17:11:15 18° E
Cosmos 44 4.1 17:05:42 10° NW 17:10:57 62° WSW 17:16:17 10° SSE
SL-16 R/B 2.2 17:06:49 10° SSW 17:12:30 87° WNW 17:18:12 10° NNE
YAOGAN 6 4.0 17:12:31 10° S 17:15:59 42° W 17:19:26 10° NNW
ISS -2.8 17:14:03 10° WNW 17:17:12 35° N 17:18:35 24° NE
Envisat 4.3 17:14:30 10° S 17:19:19 43° W 17:24:11 10° NNW
Cosmos 2181 Rocket 4.0 17:14:09 10° S 17:20:34 84° E 17:26:57 10° N
Cosmos 1500 4.0 17:19:38 10° NNE 17:22:59 28° ENE 17:26:21 10° SE
SL-23 DEB 4.4 17:20:02 10° SW 17:23:34 53° SE 17:26:31 23° ENE
Cosmos 1328 Rocket 3.4 17:20:13 10° S 17:24:32 81° E 17:28:54 10° N
Cosmos 1933 Rocket 3.8 17:21:25 10° N 17:25:46 48° ENE 17:30:04 10° SSE
Cosmos 1666 Rocket 4.4 17:22:27 10° NNW 17:26:47 54° W 17:31:07 10° S
Cosmos 773 Rocket 4.0 17:22:11 10° SSW 17:27:28 89° ESE 17:32:48 10° NNE
Helios 1A Rocket 3.7 17:29:51 29° ENE 17:29:51 29° ENE 17:33:14 10° N
Cosmos 1656 Rocket 4.0 17:26:10 10° NNW 17:31:31 41° NE 17:35:32 16° ESE
Cosmos 2263 4.3 17:26:39 10° NNW 17:32:09 51° ENE 17:37:35 10° SE
NOSS 3-2 (A) 4.2 17:31:07 10° S 17:35:53 29° ESE 17:37:25 26° E
OE (NEXTSAT) 4.3 17:35:44 10° W 17:39:11 75° S 17:40:08 44° ESE
Cosmos 482 Debris 4.5 17:38:58 10° W 17:40:27 28° SW 17:40:27 28° SW
Cosmos 1939 Rocket 2.6 17:36:47 10° SSE 17:40:39 77° ENE 17:44:35 10° N
Okean-O 3.0 17:36:41 10° SE 17:40:49 41° ENE 17:45:00 10° N
CZ-4 R/B 1.8 17:41:04 37° ENE 17:41:04 37° ENE 17:44:36 10° N
CZ-4B R/B 1.2 17:39:23 26° N 17:41:01 82° WNW 17:44:09 10° SSW
Okean O Rocket 2.8 17:36:56 10° S 17:41:06 44° W 17:45:19 10° NNW
H-2A R/B 3.4 17:37:46 10° N 17:41:40 38° WNW 17:45:38 10° SW
Meteor 2-6 Rocket 4.4 17:36:45 10° SSE 17:42:00 44° E 17:45:25 20° NNE
SL-08 R/B 4.3 17:37:48 10° N 17:43:59 75° E 17:50:05 10° SSE
Meteor 1-11 Rocket 4.3 17:40:31 10° N 17:45:47 35° ENE 17:48:35 23° ESE
CZ-2C R/B 3.0 17:41:32 10° SE 17:46:19 48° ENE 17:50:57 10° N
USA 215 3.6 17:43:41 27° ENE 17:46:55 47° SE 17:53:11 10° SSW
Cosmos 1812 3.8 17:47:19 10° SSE 17:49:34 29° SE 17:49:34 29° SE
USA 238 DEB 4.1 17:48:24 10° S 17:54:20 38° ESE 17:55:53 33° E
USA 238 4.1 17:48:30 10° S 17:54:26 37° ESE 17:55:57 33° E
SAR-Lupe-4 3.4 17:54:21 65° ENE 17:54:37 69° ESE 17:58:11 10° S
SKYMED 2 3.4 17:53:27 22° NNE 17:56:12 81° ESE 18:00:32 10° S
Cosmos 923 Rocket 4.2 17:53:53 10° S 17:58:47 45° ESE 17:59:17 44° E
CSL-04 Rocket 4.0 18:01:09 40° NE 18:01:09 40° NE 18:05:43 10° N
Meteor 1-4 Rocket 3.6 17:58:41 10° SSW 18:02:08 44° WNW 18:04:24 19° N
Cosmos 158 Rocket 4.1 17:58:25 10° S 18:03:00 46° ESE 18:03:00 46° ESE
MOS 1 Rocket 3.7 18:03:11 39° NE 18:04:51 52° E 18:10:05 10° S
Cosmos 2237 Rocket 4.4 18:01:12 10° W 18:05:05 19° NW 18:09:00 10° N
CZ-2D R/B 3.3 18:02:30 10° S 18:06:19 77° WSW 18:10:11 10° NNW
H-2A R/B 2.1 18:06:32 48° E 18:07:14 51° ENE 18:12:12 10° N
Cosmos 1603 3.5 18:02:20 10° SSW 18:07:56 73° ESE 18:09:58 40° NE
Cosmos 1782 3.9 18:05:08 10° SSW 18:08:57 44° WNW 18:12:14 13° N
IRS-1C Rocket 4.3 18:05:41 10° S 18:10:57 71° WSW 18:16:15 10° NNW
SAR-Lupe-1 4.1 18:11:43 76° WSW 18:11:43 76° WSW 18:15:11 10° SSW
Cosmos 1943 3.1 18:06:46 10° SSW 18:12:23 70° ESE 18:14:01 46° NE
Meteor 1-5 Rocket 4.2 18:06:47 10° N 18:12:44 86° E 18:18:29 10° S
SL-24 DEB 4.5 18:08:26 10° N 18:13:11 71° W 18:17:51 10° SSW
Cosmos 2369 Rocket 2.7 18:08:37 10° NNW 18:14:13 61° WSW 18:19:45 10° S
USA 281 3.1 18:11:29 10° SSE 18:18:02 82° ENE 18:24:39 10° NNW
Cosmos 1943 Rocket 3.8 18:14:09 10° NW 18:19:07 34° WSW 18:24:06 10° S
Cosmos 1535 Rocket 4.4 18:13:28 10° N 18:19:28 53° ENE 18:19:38 53° E
Cosmos 2239 Rocket 4.3 18:13:25 10° N 18:19:37 81° E 18:25:49 10° S
USA 267 3.2 18:18:32 46° E 18:20:25 66° NNE 18:26:54 10° NW
ARGOS 3.9 18:27:20 36° NNE 18:27:20 36° NNE 18:30:41 10° N
NOSS 3-3 (A) 4.4 18:18:31 10° NW 18:26:00 78° NE 18:29:52 35° SE
Cosmos 1680 Rocket 3.8 18:20:50 10° S 18:25:01 50° SSE 18:25:01 50° SSE
NOSS 3-3 (C) 4.4 18:18:37 10° NW 18:26:05 78° NE 18:29:53 36° SE
X-37B 2.8 18:23:40 10° WSW 18:25:15 26° WSW 18:25:15 26° WSW
YAOGAN 1 2.9 18:29:03 57° NNW 18:29:03 57° NNW 18:32:34 10° NNW
Meteor 1-10 Rocket 4.1 18:25:39 10° S 18:31:18 88° E 18:33:01 47° NNE
Lacrosse 5 rocket 3.1 18:29:17 10° WNW 18:31:27 22° NW 18:31:27 22° NW
ERS-2 4.2 18:31:57 20° NNW 18:33:26 26° WNW 18:36:31 10° SW
Cosmos 44 Rocket 3.5 18:37:17 10° NW 18:42:14 76° W 18:42:14 76° W
Cosmos 1934 Rocket 3.9 18:37:21 10° N 18:43:46 85° E 18:50:04 10° S
COSMO-SKYMED 1 4.1 18:42:02 22° NNW 18:44:06 34° WNW 18:48:01 10° SW
Cosmos 2228 Rocket 4.0 18:44:22 10° SSW 18:48:45 48° WNW 18:48:47 48° WNW
Nadezhda 3 Rocket 4.4 18:42:38 10° SSW 18:48:56 62° WNW 18:55:17 10° N
ISS -0.6 18:51:02 10° WNW 18:51:32 13° WNW 18:51:32 13° WNW
CENTAUR R/B 3.0 18:49:39 10° SSW 18:53:41 45° S 18:53:41 45° S
SL-16 R/B 4.4 18:53:27 10° W 18:57:28 19° NW 19:00:32 13° N
NOSS 3-2 (C) 4.2 18:54:28 10° SSW 18:57:45 37° SSW 18:57:45 37° SSW
CZ-4 R/B 4.0 19:17:05 18° WNW 19:17:05 18° WNW 19:19:03 10° NW
NOSS 3-2 (A) 4.1 19:20:32 10° SW 19:24:51 48° W 19:24:51 48° W
USA 215 3.6 19:31:02 60° WNW 19:31:02 60° WNW 19:36:35 10° WSW
H-2A R/B 4.1 19:47:09 23° W 19:47:09 23° W 19:51:01 10° NW
